Zurück zum Katalog

STARLINK-32863

AktivKommunikationVLEO
NORAD 62968·PAYLOAD·🇺🇸 United States

Gestartet Feb 11, 2025 von Vandenberg Space Force Base

Loading…

Nächste Überflüge (nächste 24 Stunden)

TLE

AktuellSource: CelesTrak SupGP

Epoche: Sep 14, 2026, 22:41 UTC

1 62968C 25029W   26257.94562500  .00035905  00000+0  11549-2 0  2572
2 62968  53.1591  71.9904 0001170  81.8499 260.0128 15.31676633    16

Verfolge STARLINK-32863 in Echtzeit mit AllMySat

Download on the App Store